Time,TemperatureF,DewpointF,PressureIn,WindDirection,WindDirectionDegrees,WindSpeedMPH,WindSpeedGustMPH,Humidity,HourlyPrecipIn,Conditions,Clouds,dailyrainin,SolarRadiationWatts/m^2,SoftwareType,DateUTC
2013-06-24 00:00:00,50.0,48.0,29.89,WSW,246,4.0,-999.0,90,-99.99,,,-99.99,0.000000,,2013-06-24 06:00:00,
2013-06-24 01:00:00,54.0,49.0,29.88,SW,225,5.0,-999.0,82,-99.99,,,-99.99,0.000000,,2013-06-24 07:00:00,
2013-06-24 02:00:00,52.0,49.0,29.86,SW,232,4.0,-999.0,88,-99.99,,,-99.99,0.000000,,2013-06-24 08:00:00,
2013-06-24 03:00:00,50.0,46.0,29.86,SW,226,5.0,-999.0,84,-99.99,,,-99.99,0.010000,,2013-06-24 09:00:00,
2013-06-24 04:00:00,50.0,45.0,29.85,SW,221,6.0,-999.0,84,-99.99,,,-99.99,0.010000,,2013-06-24 10:00:00,
2013-06-24 05:00:00,48.0,44.0,29.84,SW,224,5.0,-999.0,88,-99.99,,,-99.99,0.030000,,2013-06-24 11:00:00,
2013-06-24 06:00:00,50.0,45.0,29.84,SW,222,6.0,-999.0,82,-99.99,,,-99.99,8.240000,,2013-06-24 12:00:00,
2013-06-24 06:55:00,50.0,45.0,29.84,SW,222,6.0,-999.0,82,-99.99,,,-99.99,8.240000,,2013-06-24 12:55:00,
2013-06-24 07:00:00,56.0,48.0,29.83,SW,217,6.0,-999.0,74,-99.99,,,-99.99,109.800003,,2013-06-24 13:00:00,
2013-06-24 08:00:00,61.0,50.0,29.83,SW,215,4.0,-999.0,67,-99.99,,,-99.99,226.600006,,2013-06-24 14:00:00,
2013-06-24 09:00:00,63.0,50.0,29.83,South,177,5.0,-999.0,63,-99.99,,,-99.99,376.399994,,2013-06-24 15:00:00,
2013-06-24 10:00:00,68.0,50.0,29.82,SE,135,7.0,-999.0,54,-99.99,,,-99.99,550.400024,,2013-06-24 16:00:00,
2013-06-24 11:00:00,69.0,50.0,29.80,ESE,123,7.0,-999.0,52,-99.99,,,-99.99,607.599976,,2013-06-24 17:00:00,
2013-06-24 12:00:00,69.0,54.0,29.78,ESE,119,9.0,-999.0,58,-99.99,,,-99.99,575.200012,,2013-06-24 18:00:00,
2013-06-24 13:00:00,73.0,55.0,29.78,ESE,111,8.0,-999.0,53,-99.99,,,-99.99,641.599976,,2013-06-24 19:00:00,
2013-06-24 13:57:00,73.0,55.0,29.78,ESE,111,8.0,-999.0,53,-99.99,,,-99.99,641.599976,,2013-06-24 19:57:00,
2013-06-24 14:00:00,73.0,49.0,29.76,SSE,148,9.0,-999.0,42,-99.99,,,-99.99,632.500000,,2013-06-24 20:00:00,
2013-06-24 15:00:00,75.0,50.0,29.74,SSE,155,14.0,-999.0,41,-99.99,,,-99.99,773.400024,,2013-06-24 21:00:00,
2013-06-24 15:54:00,75.0,50.0,29.74,SSE,155,14.0,-999.0,41,-99.99,,,-99.99,773.400024,,2013-06-24 21:54:00,
2013-06-24 16:00:00,77.0,50.0,29.75,SSE,168,18.0,-999.0,40,-99.99,,,-99.99,749.799988,,2013-06-24 22:00:00,
2013-06-24 16:56:00,77.0,50.0,29.75,SSE,168,18.0,-999.0,40,-99.99,,,-99.99,749.799988,,2013-06-24 22:56:00,
2013-06-24 17:55:00,72.0,43.0,29.74,SSE,155,20.0,-999.0,35,-99.99,,,-99.99,398.700012,,2013-06-24 23:55:00,
2013-06-24 20:00:00,59.0,51.0,29.79,SSW,207,11.0,-999.0,74,-99.99,,,-99.99,17.250000,,2013-06-25 02:00:00,
2013-06-24 21:00:00,59.0,55.0,29.79,WSW,249,6.0,-999.0,86,-99.99,,,-99.99,16.860001,,2013-06-25 03:00:00,
2013-06-24 22:00:00,58.0,54.0,29.80,WSW,257,5.0,-999.0,88,-99.99,,,-99.99,0.910000,,2013-06-25 04:00:00,
2013-06-24 22:52:00,58.0,54.0,29.80,WSW,257,5.0,-999.0,88,-99.99,,,-99.99,0.910000,,2013-06-25 04:52:00,
2013-06-24 23:00:00,60.0,54.0,29.82,WSW,246,8.0,-999.0,81,-99.99,,,-99.99,0.000000,,2013-06-25 05:00:00,